Wetbulb
43.67 47.65 52.10 54.44 54.71 52.19 51.31 48.67 49.34 48.99 50.83 52.35 56.11 61.67 64.31 66.88 68.21 68.51 69.40 70.24 70.81 70.11 70.39 70.36 69.56 69.20 68.94 68.52 68.14 68.05 67.62 67.26 66.78 67.12 67.37 67.33 67.17 67.01 67.69 67.76 67.33 66.81 64.55 64.26
44.88 49.84 53.14 52.01 54.89 54.02 53.74 50.68 49.79 51.31 49.47 54.66 63.70 66.02 65.71 66.56 67.86 68.03 68.72 69.22 69.38 69.47 69.48 69.37 68.98 68.15 68.20 67.71 67.62 67.76 66.66 66.00 65.55 64.63 64.33 63.76 63.98 64.37 64.62 64.37 64.84 67.60 67.94 67.67
40.92 49.22 50.17 46.88 52.83 53.12 51.04 52.27 52.27 50.24 53.43 63.89 63.93 64.58 65.22 66.38 67.67 67.60 67.78 68.16 67.87 67.96 67.82 67.84 67.69 67.26 65.86 65.86 66.18 65.39 64.31 63.54 62.16 61.37 61.36 62.67 63.87 63.52 63.08 62.41 62.68 62.27 62.45 63.29
41.22 45.47 41.42 50.01 55.22 55.95 54.09 54.19 55.43 56.27 62.02 64.71 64.44 64.41 66.31 67.61 67.50 67.40 67.78 67.62 66.99 66.84 65.99 65.75 66.24 66.09 65.50 65.21 64.67 63.56 61.65 60.43 60.03 59.94 61.23 62.33 62.70 61.19 60.70 60.78 60.87 60.38 60.95 61.63
43.56 42.39 47.10 50.87 51.56 52.39 51.72 51.10 57.17 60.37 63.42 63.91 65.44 65.61 64.23 67.39 68.09 67.94 67.40 67.08 66.54 66.18 65.51 64.72 64.63 64.31 64.32 63.77 63.70 62.13 60.68 59.71 59.39 59.20 59.38 60.66 60.69 60.29 60.39 60.61 60.94 60.71 60.52 59.83
42.10 43.30 42.65 50.86 53.28 57.50 58.03 49.71 61.09 64.20 63.61 64.00 64.85 60.20 61.46 66.22 67.94 67.58 67.71 67.22 66.34 65.94 65.08 64.18 62.97 62.75 63.15 62.83 63.45 62.23 61.19 60.71 60.09 59.41 58.92 58.24 58.02 59.49 60.06 60.73 59.96 59.81 58.51 58.48
42.50 43.19 47.60 52.76 57.02 60.13 50.53 51.45 63.43 65.28 65.17 65.10 63.27 62.13 65.27 67.59 67.12 67.30 66.95 66.41 66.03 65.18 63.75 62.82 62.75 62.49 61.86 62.68 62.31 63.01 62.92 62.24 61.54 60.43 59.27 58.23 57.35 56.75 56.83 56.81 57.07 56.61 57.80 57.05
42.60 42.15 43.96 54.67 57.72 54.17 55.39 63.35 65.63 65.76 66.18 65.59 63.86 65.40 66.44 66.59 65.99 65.84 65.27 64.99 65.16 64.41 63.37 63.29 63.32 62.67 62.24 62.83 63.07 62.25 60.96 59.72 58.08 58.77 61.20 59.49 57.29 56.69 56.21 55.25 54.33 54.05 54.07 54.52
46.31 47.31 51.75 58.47 58.08 55.07 65.15 65.06 65.87 66.19 66.90 65.14 64.60 65.09 65.72 65.30 65.19 65.28 64.73 64.54 65.60 64.52 62.65 62.64 63.63 63.36 62.87 63.20 61.74 59.94 58.86 57.15 56.47 56.59 56.57 56.67 56.51 55.95 55.71 55.29 54.41 53.25 52.82 52.14
46.89 47.88 52.82 56.02 57.18 59.64 66.24 66.50 67.44 67.72 65.81 65.89 64.85 65.54 65.10 65.01 64.90 64.51 64.57 64.97 65.15 63.36 62.11 61.79 63.16 63.79 63.86 63.90 61.40 59.28 58.09 56.03 55.34 54.78 54.58 54.97 55.31 55.57 55.61 55.25 54.01 52.57 52.68 52.00
46.22 49.02 55.18 57.21 60.05 63.38 66.13 67.73 67.77 67.13 66.70 66.05 65.71 65.29 65.10 64.76 64.57 64.40 64.57 64.52 64.74 63.05 62.19 62.48 63.40 63.96 64.83 64.09 61.25 57.90 57.12 55.81 54.53 54.25 53.38 52.20 51.42 51.89 53.20 49.62 50.35 50.79 49.04 48.97
46.22 49.02 52.53 55.16 61.29 65.71 66.40 66.44 66.62 66.41 66.00 66.75 66.42 65.15 65.42 64.62 64.99 64.77 64.12 64.44 63.55 62.32 62.24 62.12 62.93 62.87 63.34 63.85 62.12 60.36 58.45 57.73 55.87 54.57 53.97 53.51 52.98 51.60 48.46 46.31 44.95 45.33 47.14 48.80
55.65 57.61 56.88 58.00 64.78 66.81 66.60 66.72 67.32 66.96 66.75 65.75 66.11 65.96 65.50 64.36 64.64 62.81 64.29 64.08 63.34 62.74 61.82 61.66 62.37 62.60 62.53 60.82 61.44 60.84 60.06 60.32 58.92 55.79 54.99 54.05 53.29 51.88 49.90 48.90 46.36 42.60 42.04 46.52
61.17 58.44 56.96 63.93 64.60 66.26 67.33 67.94 65.83 67.52 67.38 66.99 66.48 66.38 65.45 64.12 62.95 63.88 63.91 64.14 63.55 62.38 61.93 61.65 61.50 61.68 62.22 61.71 61.23 60.79 59.96 56.93 60.15 59.72 57.76 55.73 54.87 53.22 49.64 47.07 46.57 46.31 47.02 44.35
60.08 63.46 58.32 64.66 66.19 65.90 67.24 67.30 65.95 65.13 64.92 65.20 65.95 64.86 64.26 63.18 63.29 63.64 63.83 63.88 63.28 62.14 61.08 61.09 60.92 61.19 62.06 61.13 60.12 59.37 59.87 60.35 62.01 61.56 58.86 57.65 57.23 55.49 52.06 49.78 48.73 46.88 46.29 44.83
59.17 64.17 63.91 65.20 65.27 65.57 65.97 65.31 63.84 63.16 63.75 63.90 64.00 63.87 64.24 64.40 63.49 63.32 63.88 63.08 61.79 60.50 59.83 59.96 60.41 60.76 60.23 58.98 57.60 56.01 57.10 59.08 57.57 54.54 51.64 50.63 54.04 56.01 55.17 54.09 50.15 46.68 44.33 43.04
55.44 58.94 62.02 61.12 64.04 64.40 64.71 64.65 64.03 63.48 63.77 63.84 63.56 63.86 63.44 63.25 63.31 63.15 62.40 61.54 60.83 60.40 58.98 58.37 56.59 54.69 59.19 57.37 56.32 54.44 52.45 49.93 51.56 46.85 46.40 45.75 46.97 50.29 52.43 53.04 49.40 45.36 42.81 42.88
56.37 59.59 61.76 63.52 60.81 63.59 63.80 64.18 64.41 64.33 63.97 64.17 64.46 64.04 63.42 62.99 62.18 61.56 60.40 59.84 58.61 57.07 56.60 55.03 53.23 50.77 49.92 53.92 55.87 51.34 47.55 46.24 45.65 45.69 45.44 44.71 44.45 46.29 50.32 49.62 46.19 44.31 43.75 44.54
59.79 59.37 62.36 63.33 62.70 63.42 63.81 64.31 64.41 64.73 64.42 64.80 64.30 63.44 63.68 63.11 61.64 59.96 59.00 58.03 56.60 54.86 54.57 52.84 57.06 51.78 47.17 50.01 50.37 48.66 47.06 46.52 45.86 45.39 45.48 46.72 44.24 43.61 43.89 44.16 44.61 44.93 44.60 45.71
60.05 60.84 60.92 61.90 63.29 63.59 64.03 64.48 64.07 63.80 64.82 63.99 63.39 61.98 60.01 58.96 58.25 57.27 56.97 56.67 57.01 56.64 53.20 51.19 48.19 47.11 46.79 52.39 53.54 47.16 47.34 46.66 45.90 44.86 44.78 44.91 44.91 44.95 44.24 43.93 44.99 45.24 45.40 45.68
56.07 58.19 59.53 60.27 63.74 64.60 64.48 64.52 64.17 63.44 63.10 62.12 60.72 59.08 58.04 57.67 57.53 56.49 55.42 55.40 54.27 53.03 50.02 52.06 46.58 46.41 48.22 50.41 48.50 46.57 45.99 45.94 46.16 45.68 46.03 45.78 45.91 45.43 45.19 45.89 46.46 46.23 46.30 46.45
57.03 56.48 58.13 61.29 62.87 62.95 64.36 64.83 64.10 62.41 61.59 60.59 59.82 59.76 58.43 57.47 57.69 57.38 56.10 56.46 53.92 51.96 50.65 48.07 48.38 50.93 50.74 53.17 46.56 46.71 46.81 47.14 46.49 46.28 46.02 45.56 45.08 45.15 45.93 46.86 46.88 46.76 46.58 45.74
57.55 56.90 59.50 61.65 61.67 63.24 63.94 64.07 63.34 62.46 61.00 60.24 60.44 60.31 60.33 59.56 59.51 56.75 55.26 54.38 52.76 50.83 49.67 48.24 51.44 54.88 54.39 46.78 47.34 47.97 48.53 48.23 47.32 46.70 46.16 45.69 45.44 46.00 46.70 47.29 47.00 46.95 45.91 45.44
60.41 58.36 61.29 62.48 63.12 63.47 61.87 62.04 62.60 62.21 61.91 61.84 62.06 61.94 60.69 58.36 53.22 52.93 52.54 51.27 50.37 49.89 48.73 48.85 52.02 52.92 50.65 47.46 47.85 48.61 48.11 47.82 47.38 46.77 46.63 44.81 45.98 46.57 47.57 47.48 46.74 46.10 46.04 45.33
61.03 60.40 62.03 62.95 62.81 62.92 62.43 62.00 61.52 61.32 61.25 60.44 60.09 59.60 58.61 58.34 57.04 50.46 51.55 50.98 49.84 49.24 47.80 51.56 52.64 51.83 48.83 49.37 48.74 48.42 48.11 48.06 47.84 47.08 46.77 46.00 46.38 47.03 47.45 46.98 46.92 46.83 46.16 45.84
60.45 60.67 62.38 63.36 63.72 63.25 62.73 62.33 60.90 60.53 59.79 58.01 56.47 56.40 54.31 53.13 52.65 51.25 50.87 50.17 49.20 48.22 46.72 47.83 47.48 47.60 48.74 48.79 48.20 47.89 47.16 47.30 47.10 47.61 47.56 48.00 47.18 47.07 47.38 47.93 47.02 46.57 46.63 46.76
61.94 55.72 62.64 62.53 63.30 63.05 62.42 61.45 59.78 58.77 58.88 58.11 55.23 54.45 53.20 51.73 50.98 50.55 49.41 48.65 47.86 46.36 46.29 47.10 46.57 47.19 47.44 48.33 48.70 47.92 47.23 46.81 45.83 47.49 47.43 47.76 47.68 47.22 47.67 47.61 47.67 47.54 46.93 46.87
MSLP
1002.44 1002.13 1001.77 1001.57 1001.82 1002.57 1003.22 1004.25 1005.46 1005.42 1006.00 1005.81 1005.75 1006.12 1007.12 1007.78 1008.59 1009.32 1009.93 1010.31 1010.74 1011.20 1011.54 1012.04 1012.47 1012.82 1013.12 1013.25 1013.30 1013.46 1013.67 1013.89 1014.16 1014.23 1014.18 1014.28 1014.21 1014.04 1013.75 1013.50 1013.41 1013.23 1013.30 1013.63
1002.53 1002.10 1001.59 1001.75 1001.39 1001.42 1001.91 1003.39 1004.17 1004.84 1005.81 1005.61 1006.32 1006.48 1007.54 1008.28 1009.02 1009.72 1010.39 1010.91 1011.45 1011.90 1012.28 1012.81 1013.25 1013.49 1013.82 1014.03 1014.05 1014.03 1014.35 1014.72 1014.85 1014.94 1014.88 1014.93 1014.93 1014.88 1014.77 1014.58 1014.32 1014.05 1013.85 1013.72
1002.66 1001.77 1001.65 1001.32 1000.43 1000.92 1001.53 1001.84 1002.92 1004.15 1004.65 1005.68 1006.79 1007.07 1007.63 1008.57 1009.06 1009.83 1010.68 1011.39 1012.06 1012.52 1012.96 1013.35 1013.72 1014.03 1014.39 1014.61 1014.69 1014.83 1015.10 1015.40 1015.56 1015.60 1015.56 1015.51 1015.37 1015.34 1015.33 1015.30 1015.16 1015.08 1014.97 1014.68
1002.73 1002.04 1001.30 999.46 998.46 999.05 1000.09 1000.85 1001.75 1003.19 1004.37 1005.26 1006.28 1007.38 1007.95 1008.39 1008.87 1010.14 1010.96 1011.86 1012.61 1013.15 1013.70 1014.12 1014.39 1014.70 1014.97 1015.25 1015.42 1015.58 1015.80 1015.91 1016.01 1016.06 1016.02 1015.91 1015.81 1015.85 1015.89 1015.83 1015.73 1015.81 1015.70 1015.54
1002.49 1002.04 1000.34 998.98 998.84 999.25 1000.16 1001.40 1001.68 1003.16 1004.77 1005.79 1007.00 1007.67 1008.94 1009.12 1009.65 1010.09 1011.09 1012.07 1012.83 1013.49 1014.11 1014.61 1014.94 1015.22 1015.42 1015.78 1016.02 1016.22 1016.44 1016.50 1016.58 1016.56 1016.57 1016.60 1016.59 1016.59 1016.54 1016.40 1016.36 1016.35 1016.30 1016.18
1002.36 1001.54 1000.07 998.00 997.32 997.13 998.60 1001.18 1001.78 1002.00 1003.97 1005.32 1006.55 1008.03 1008.73 1009.31 1010.13 1010.96 1011.52 1012.23 1012.96 1013.71 1014.28 1014.74 1015.22 1015.39 1015.67 1016.11 1016.36 1016.63 1016.82 1016.94 1016.93 1016.98 1017.11 1017.24 1017.34 1017.21 1017.15 1017.03 1017.13 1017.16 1017.07 1016.98
1001.28 1000.40 998.94 996.84 996.77 996.92 998.04 999.94 1000.93 1002.06 1002.71 1004.40 1005.16 1005.16 1006.77 1009.11 1010.39 1010.90 1011.40 1012.27 1013.04 1013.77 1014.42 1014.94 1015.35 1015.65 1016.07 1016.32 1016.64 1016.81 1016.92 1017.08 1017.25 1017.38 1017.48 1017.63 1017.76 1017.82 1017.83 1017.77 1017.74 1017.84 1017.69 1017.63
1000.24 999.36 998.13 996.19 996.90 996.64 996.82 997.66 999.41 1001.66 1002.12 1003.56 1005.12 1005.64 1007.52 1009.17 1010.19 1010.97 1011.52 1012.56 1013.32 1014.03 1014.71 1015.09 1015.40 1015.72 1016.22 1016.53 1016.80 1016.98 1017.19 1017.44 1017.70 1017.82 1017.91 1018.08 1018.15 1018.31 1018.32 1018.39 1018.52 1018.49 1018.29 1018.29
998.81 997.88 996.55 995.79 995.11 995.67 995.75 997.06 999.28 1000.46 1002.41 1003.51 1004.54 1006.10 1007.71 1009.12 1010.13 1010.73 1011.53 1012.51 1013.24 1013.98 1014.80 1015.22 1015.51 1015.71 1016.27 1016.66 1016.90 1017.27 1017.63 1018.00 1018.20 1018.32 1018.45 1018.52 1018.63 1018.81 1018.86 1018.92 1019.03 1019.07 1019.02 1018.99
998.40 997.08 996.51 995.94 995.44 995.33 995.84 996.52 997.88 999.76 1001.36 1002.78 1004.32 1006.26 1007.79 1009.10 1010.01 1010.75 1011.70 1012.47 1013.22 1014.02 1014.70 1015.28 1015.53 1015.80 1016.04 1016.56 1016.94 1017.39 1017.90 1018.35 1018.64 1018.76 1019.05 1019.13 1019.16 1019.25 1019.38 1019.56 1019.67 1019.75 1019.67 1019.63
997.91 996.85 996.53 996.55 995.73 995.22 995.99 996.94 998.49 1000.15 1001.01 1002.48 1004.16 1006.22 1006.96 1008.69 1009.89 1010.80 1011.71 1012.47 1013.06 1013.85 1014.53 1015.13 1015.47 1015.77 1016.02 1016.57 1017.07 1017.68 1018.14 1018.59 1018.96 1019.20 1019.42 1019.70 1019.85 1019.85 1019.91 1020.10 1020.14 1020.16 1020.20 1020.14
998.15 996.62 996.10 995.59 995.13 995.84 996.41 997.64 999.01 1000.07 1002.02 1003.28 1003.55 1005.27 1007.01 1008.57 1009.51 1010.47 1011.54 1012.50 1013.31 1014.01 1014.46 1014.95 1015.26 1015.58 1015.94 1016.40 1016.91 1017.56 1018.15 1018.63 1018.96 1019.24 1019.59 1019.85 1019.99 1020.18 1020.03 1020.14 1020.15 1020.15 1020.18 1020.16
997.62 996.62 996.10 995.48 995.49 995.74 996.32 997.53 998.56 999.69 1001.10 1002.84 1004.52 1004.93 1006.55 1008.11 1009.57 1010.63 1011.61 1012.46 1013.28 1013.92 1014.30 1014.77 1015.22 1015.59 1015.73 1016.07 1016.69 1017.38 1017.78 1018.20 1018.62 1018.94 1019.18 1019.48 1019.96 1020.10 1020.34 1020.28 1020.26 1020.25 1020.20 1020.17
997.20 996.68 996.37 995.77 996.05 996.61 997.02 997.80 998.92 1000.37 1001.75 1002.94 1004.21 1005.95 1007.40 1008.48 1009.84 1010.75 1011.70 1012.48 1013.28 1013.96 1014.40 1014.69 1015.22 1015.65 1015.79 1015.94 1016.33 1016.94 1017.41 1017.84 1018.25 1018.65 1019.09 1019.48 1019.88 1020.03 1020.17 1020.32 1020.47 1020.57 1020.22 1020.21
997.55 996.67 995.50 995.45 996.37 997.55 998.33 999.27 1000.08 1001.27 1002.53 1004.04 1005.33 1005.93 1007.35 1008.68 1009.88 1010.89 1011.77 1012.62 1013.43 1014.12 1014.81 1015.01 1015.27 1015.61 1015.65 1015.89 1016.31 1016.78 1017.30 1017.62 1017.71 1018.10 1018.70 1019.06 1019.39 1020.02 1020.14 1020.28 1020.41 1020.57 1020.45 1020.13
998.47 997.27 996.50 996.26 997.06 998.22 999.06 1000.31 1000.65 1002.06 1003.24 1004.55 1005.73 1006.92 1007.70 1008.66 1010.00 1011.07 1011.96 1012.63 1013.43 1014.39 1014.93 1015.16 1015.35 1015.58 1015.79 1015.93 1016.36 1016.82 1017.08 1017.34 1017.77 1018.20 1018.59 1018.84 1019.19 1019.56 1019.97 1020.27 1020.47 1020.46 1020.50 1020.45
999.58 999.16 998.64 998.59 998.57 998.89 999.20 999.48 1000.14 1001.53 1003.11 1004.50 1005.93 1007.07 1008.23 1009.51 1010.79 1011.45 1012.05 1012.57 1013.55 1013.95 1014.72 1015.13 1015.57 1015.62 1015.93 1016.09 1016.41 1017.08 1017.40 1017.71 1018.02 1018.48 1018.67 1018.89 1019.04 1019.30 1019.53 1019.94 1020.20 1020.27 1020.38 1020.56
1000.34 1000.08 999.70 999.68 1000.03 1000.03 1000.58 1001.31 1001.61 1002.13 1003.01 1004.09 1005.73 1007.09 1008.20 1009.20 1010.42 1011.83 1012.65 1012.77 1013.79 1014.41 1015.02 1015.07 1015.28 1015.49 1015.92 1016.22 1016.51 1016.91 1017.68 1018.13 1018.36 1018.75 1019.09 1019.27 1019.45 1019.66 1019.87 1020.03 1020.09 1020.28 1020.52 1020.20
1000.38 1000.35 1000.07 999.94 1000.51 1001.29 1001.98 1002.42 1002.76 1003.03 1003.92 1004.62 1005.66 1006.87 1008.18 1009.29 1010.73 1012.18 1013.21 1013.93 1014.51 1014.96 1015.54 1015.48 1015.52 1015.62 1016.09 1016.18 1016.65 1017.13 1017.86 1018.48 1018.78 1019.14 1019.19 1019.44 1019.93 1020.13 1020.21 1020.49 1020.54 1020.44 1020.26 1020.11
1000.95 1000.95 1000.41 1000.78 1001.13 1001.72 1002.80 1003.31 1003.87 1004.82 1005.61 1005.99 1007.56 1008.24 1009.33 1010.38 1011.07 1012.18 1013.45 1014.11 1014.34 1014.71 1015.47 1015.76 1015.60 1015.91 1016.36 1016.38 1016.64 1017.24 1017.88 1018.40 1018.85 1019.06 1019.28 1019.56 1019.87 1020.02 1020.22 1020.38 1020.42 1020.50 1020.45 1020.33
1001.51 1001.40 1000.99 1001.19 1001.75 1002.07 1003.01 1003.95 1004.64 1005.78 1006.59 1006.68 1006.61 1008.56 1009.48 1010.37 1011.40 1012.00 1013.34 1014.42 1014.97 1015.29 1015.61 1015.87 1015.83 1016.27 1016.52 1016.56 1016.88 1017.33 1017.86 1018.38 1018.74 1019.13 1019.20 1019.34 1019.79 1020.03 1020.32 1020.32 1020.24 1020.37 1020.45 1020.47
1001.91 1001.76 1001.94 1001.14 1002.14 1002.69 1003.34 1004.19 1005.02 1005.88 1006.63 1007.44 1007.89 1008.59 1009.06 1010.29 1010.75 1011.61 1011.50 1013.08 1014.81 1014.83 1015.80 1016.06 1016.17 1016.28 1016.48 1016.61 1016.96 1017.51 1018.01 1018.46 1018.65 1018.84 1019.27 1019.42 1019.47 1019.55 1019.87 1019.94 1020.07 1020.28 1020.26 1020.17
1002.37 1001.64 1001.38 1001.99 1002.79 1003.29 1003.89 1004.08 1004.79 1005.14 1006.17 1007.24 1007.97 1008.41 1008.90 1009.41 1010.03 1010.65 1011.41 1012.72 1013.46 1014.32 1015.77 1015.94 1015.99 1016.37 1016.66 1016.93 1017.17 1017.68 1018.08 1018.42 1018.77 1018.94 1018.89 1019.29 1019.28 1019.13 1019.22 1019.57 1019.79 1019.85 1019.84 1019.98
1002.50 1002.43 1002.19 1002.54 1003.25 1003.55 1003.88 1004.63 1004.88 1005.57 1006.50 1007.00 1007.86 1008.07 1008.51 1009.95 1010.77 1011.18 1011.70 1013.04 1013.58 1014.59 1015.38 1015.61 1016.44 1016.60 1016.68 1017.23 1017.30 1017.74 1018.29 1018.53 1018.58 1018.82 1018.94 1019.01 1019.12 1019.13 1018.89 1019.21 1019.41 1019.52 1019.80 1019.87
1002.61 1002.36 1002.40 1002.67 1002.91 1003.08 1003.52 1004.33 1005.28 1006.01 1006.45 1007.17 1008.00 1008.06 1008.69 1009.22 1009.62 1011.26 1012.02 1012.71 1013.58 1014.65 1014.51 1015.77 1016.76 1016.94 1017.19 1017.35 1017.37 1017.74 1018.08 1018.09 1018.09 1018.49 1018.78 1019.10 1018.98 1018.80 1018.75 1018.91 1018.99 1019.13 1019.35 1019.48
1003.15 1002.79 1002.64 1002.67 1002.54 1003.11 1003.85 1004.40 1005.00 1005.76 1006.46 1007.12 1007.87 1008.33 1008.91 1009.42 1009.96 1010.76 1011.38 1012.23 1013.28 1013.83 1014.69 1015.97 1016.68 1017.09 1017.29 1017.42 1017.40 1017.83 1017.93 1017.80 1017.99 1018.28 1018.49 1018.61 1018.51 1018.29 1018.44 1018.57 1018.70 1018.89 1019.01 1019.11
1003.54 1003.28 1003.13 1003.19 1003.29 1003.54 1003.95 1004.41 1005.00 1005.58 1006.07 1006.97 1007.92 1008.65 1009.09 1009.56 1010.32 1010.99 1011.88 1012.73 1012.94 1013.93 1014.89 1015.84 1016.59 1016.91 1017.17 1017.20 1017.35 1017.43 1017.42 1017.45 1017.40 1017.62 1017.87 1017.88 1017.95 1017.89 1018.03 1018.24 1018.31 1018.49 1018.82 1018.92
Wind_Speed
7 6 8 14 19 8 9 8 11 10 10 9 13 14 10 12 13 13 12 11 11 11 11 11 11 10 9 9 9 8 10 10 7 5 5 6 6 7 7 7 5 5 3 3
8 8 13 11 15 13 13 6 5 9 1 4 3 12 12 13 15 14 12 11 10 10 12 12 10 10 8 8 8 8 10 8 6 6 6 6 7 7 7 7 8 7 6 5
7 7 7 2 19 14 4 5 11 11 9 9 10 13 15 14 14 14 12 11 10 9 10 10 10 8 9 8 7 9 8 6 6 5 7 7 8 8 9 9 8 9 9 8
6 3 5 11 13 17 20 13 12 10 15 15 12 6 9 9 16 13 12 12 10 9 8 7 7 8 8 7 8 8 7 6 6 6 9 10 9 11 12 9 10 10 9 8
7 5 5 4 7 12 8 4 15 16 13 14 13 11 6 4 3 11 12 10 9 7 8 7 8 7 9 8 7 8 7 6 5 5 7 10 10 9 8 7 8 8 8 11
3 7 8 11 4 14 12 1 14 23 23 23 16 9 6 8 10 11 11 11 12 9 7 8 6 7 9 7 7 7 6 6 5 5 6 7 5 7 7 8 8 7 10 10
4 4 8 7 11 16 13 13 15 21 26 24 18 6 14 15 11 11 13 13 10 9 9 7 7 7 7 6 7 5 6 6 6 6 7 6 5 4 4 5 5 6 10 7
4 4 6 4 5 14 9 20 24 19 26 22 10 20 20 16 15 15 15 13 9 9 7 6 7 7 7 7 5 6 6 6 6 5 4 4 6 5 6 6 6 5 5 5
9 9 6 12 10 6 14 24 23 24 18 16 21 19 19 17 16 15 15 11 9 9 7 6 6 7 7 6 7 7 7 6 6 6 5 4 5 5 4 5 4 4 4 4
5 4 5 8 3 6 16 24 24 20 21 21 21 21 18 15 13 13 11 12 9 10 8 6 6 6 6 7 7 7 7 6 5 6 5 5 4 4 4 4 4 4 4 4
2 5 7 6 6 13 18 19 19 17 22 21 24 19 21 15 13 12 12 9 11 9 7 7 6 6 6 7 7 7 6 5 5 4 5 5 4 3 3 2 1 2 2 2
6 4 4 5 7 10 20 20 18 21 17 17 24 22 16 14 13 13 13 10 9 8 8 7 7 7 6 6 7 7 6 5 4 4 3 4 4 4 4 3 4 3 2 1
6 3 4 1 7 15 20 20 23 23 21 22 13 19 20 17 13 12 12 11 10 10 8 7 7 6 6 7 7 7 6 6 4 5 4 4 3 4 4 2 4 3 3 2
7 3 4 5 10 9 13 20 17 14 15 16 18 16 14 15 13 14 13 11 9 8 7 8 7 7 6 6 7 7 6 7 5 5 4 4 4 4 3 3 2 2 3 2
16 8 3 10 14 9 14 17 20 18 17 16 14 19 18 18 15 13 10 10 9 8 6 7 7 6 5 6 6 6 5 4 4 4 4 5 4 4 4 3 2 0 3 4
14 15 8 16 19 16 18 16 19 16 16 15 15 14 15 15 13 12 12 12 13 9 7 7 7 5 6 7 7 5 5 9 5 4 3 3 4 5 4 4 3 2 2 2
12 14 12 7 12 16 17 19 21 19 17 18 16 15 15 14 12 12 11 9 9 10 8 8 7 5 5 6 7 4 4 5 8 5 4 3 4 4 4 4 4 3 1 1
4 5 6 7 5 9 10 9 14 19 20 21 19 18 18 18 16 12 9 11 9 8 6 7 7 7 6 6 6 6 5 5 4 5 4 4 3 3 3 3 3 2 2 3
2 5 8 3 8 7 6 7 9 13 16 19 20 19 16 14 13 9 9 10 10 9 6 6 10 8 6 7 7 5 6 5 5 4 3 6 4 2 3 2 1 3 3 4
1 5 4 5 6 6 7 7 8 7 7 12 10 14 14 13 13 12 8 9 7 4 7 6 7 6 5 4 10 5 6 6 6 5 4 4 3 3 3 3 3 3 2 1
6 5 4 5 5 7 7 8 9 9 8 13 18 15 16 14 13 13 10 6 3 5 6 7 6 4 2 4 7 6 6 6 6 5 5 5 4 4 2 1 2 4 4 3
3 4 6 8 8 6 9 12 13 12 14 14 17 17 18 16 15 10 8 7 5 10 5 4 4 6 4 10 5 6 6 5 4 5 4 4 4 4 3 3 4 5 5 5
2 3 2 5 10 10 9 12 14 17 18 17 17 16 14 12 12 12 10 9 9 10 5 4 6 6 9 5 5 6 6 6 5 4 5 4 3 4 2 3 5 5 5 4
3 4 5 6 10 10 12 9 12 12 13 13 13 12 14 9 4 5 9 12 17 12 7 6 6 8 9 5 5 6 5 5 5 4 3 4 3 2 2 3 5 5 4 5
5 4 5 9 9 8 11 12 12 12 13 11 8 9 8 6 8 6 9 9 14 8 6 7 8 8 4 4 5 6 5 5 5 4 3 2 2 1 2 3 5 4 4 5
4 2 4 7 8 9 9 12 11 10 10 10 8 8 6 6 9 10 10 12 10 11 8 6 5 5 4 5 5 5 5 4 4 3 3 3 4 4 4 4 3 4 5 4
4 2 3 3 4 6 8 9 11 11 10 10 9 5 8 9 9 10 11 10 9 7 6 5 5 6 5 5 5 4 3 3 4 3 3 4 4 5 4 4 5 5 4 4
Wind_Direction
219 219 175 197 189 179 173 152 179 194 190 191 178 152 140 121 111 104 97 89 89 92 91 85 82 78 73 65 65 79 86 81 65 48 41 43 41 22 14 18 15 350 17 10
218 179 193 214 226 207 197 125 70 105 283 121 114 113 119 125 126 115 108 100 92 89 97 95 93 92 84 78 70 81 80 74 58 47 43 40 39 37 38 24 17 21 356 335
236 165 138 231 204 192 200 163 144 153 195 131 140 137 139 135 131 129 124 116 108 103 102 100 102 106 97 89 85 80 78 64 60 59 58 47 58 55 46 40 42 38 29 22
191 111 163 233 185 185 189 173 175 128 154 155 140 114 121 140 138 134 127 123 119 115 106 100 104 102 102 95 93 90 81 74 58 62 76 73 58 58 57 53 51 49 40 33
141 171 260 257 154 142 164 215 165 137 130 120 119 102 33 97 91 134 134 129 125 126 126 121 115 116 110 102 103 99 93 87 78 73 78 81 72 64 53 52 49 45 35 35
136 151 200 229 184 178 112 177 179 147 148 145 151 148 211 154 138 127 124 130 134 127 121 117 121 114 105 104 106 108 114 107 95 85 86 84 82 84 75 57 47 41 42 34
149 159 279 238 154 143 141 206 172 170 157 158 172 185 144 142 138 137 137 133 125 126 132 134 128 117 109 111 108 126 116 106 95 86 86 84 78 60 68 65 54 50 54 33
101 120 248 133 127 161 195 153 161 172 164 165 124 121 136 143 144 145 134 133 133 130 132 136 132 119 120 114 128 113 106 95 89 95 95 93 89 71 65 68 64 48 50 32
160 200 232 189 172 159 164 153 170 164 168 148 136 140 149 148 152 147 143 141 137 137 133 141 140 133 130 145 130 123 103 99 93 86 80 84 95 87 68 60 61 50 52 46
96 214 193 210 315 150 159 164 162 163 153 150 142 148 146 148 149 143 146 143 141 136 139 148 156 151 146 144 134 124 121 122 116 103 92 73 66 65 73 60 53 41 38 37
246 259 133 161 221 172 167 156 148 148 153 147 144 156 150 150 149 148 147 143 148 148 145 150 151 146 149 143 134 124 123 125 119 113 109 98 70 60 72 60 54 81 53 57
215 243 169 203 163 150 142 151 149 142 145 160 153 151 147 149 150 149 146 144 142 145 141 152 153 147 151 149 142 138 142 148 154 137 126 118 118 98 64 80 53 58 136 173
260 285 246 357 146 163 152 155 156 154 151 156 156 146 150 148 147 141 143 148 153 157 147 145 147 145 155 153 151 161 174 175 162 159 158 146 139 133 132 15 109 79 36 72
311 222 91 183 168 170 161 154 142 131 135 142 139 133 137 135 132 143 152 156 147 147 146 141 137 144 156 146 150 157 160 161 165 179 164 160 167 169 146 143 153 321 304 296
355 335 214 117 103 105 124 138 132 136 134 132 143 140 144 145 149 154 146 146 139 134 133 133 137 152 160 148 141 149 155 172 155 133 153 166 168 171 165 166 194 309 335 341
346 25 56 123 128 133 137 136 129 134 134 137 140 145 145 140 143 144 142 142 144 152 153 142 135 147 141 136 132 117 127 135 131 126 124 133 158 166 169 181 190 231 252 263
12 7 25 30 125 145 159 156 148 145 138 138 139 133 129 132 135 144 146 128 133 142 146 140 143 137 150 140 129 129 125 116 121 111 131 138 135 139 151 155 185 214 254 304
346 347 22 74 48 135 134 140 141 147 152 143 141 145 147 151 149 146 149 130 120 108 140 145 142 130 123 135 139 133 125 132 128 128 124 105 110 127 145 164 194 229 283 286
305 341 17 47 129 91 87 125 144 143 147 153 150 156 154 136 128 122 123 123 133 135 192 163 148 124 133 152 140 129 133 128 122 137 137 130 114 128 133 139 192 223 229 170
170 288 66 66 117 127 105 92 90 99 131 123 111 110 114 116 120 122 133 146 163 164 144 161 132 135 144 125 144 137 134 138 135 134 126 134 158 161 120 114 176 178 141 128
269 215 204 112 168 146 134 145 120 124 121 119 125 130 126 127 131 125 129 142 181 141 145 135 127 126 151 125 132 135 138 144 136 148 145 135 129 100 102 225 199 175 176 195
247 276 215 145 152 149 142 138 132 131 132 134 131 140 142 148 151 150 114 143 162 144 136 133 140 157 166 144 135 132 136 141 151 149 143 148 146 137 209 211 178 186 204 215
246 216 167 161 165 164 138 139 146 145 146 152 156 159 161 167 168 159 158 171 148 137 138 147 152 150 136 121 132 137 140 143 150 154 147 163 162 167 170 183 205 214 218 220
323 201 184 145 138 136 132 149 144 147 150 149 160 161 150 163 91 78 100 129 126 131 154 133 148 140 125 148 141 137 145 150 148 150 178 184 181 187 140 200 214 222 240 244
303 168 149 150 162 168 144 141 138 148 146 141 160 151 156 160 144 135 134 133 132 145 120 148 154 138 132 154 141 150 166 178 167 165 181 197 200 249 274 242 239 219 210 219
298 220 184 194 180 159 160 157 156 154 150 147 143 147 127 125 131 138 135 139 158 143 131 149 160 158 167 168 151 159 179 177 170 192 217 250 238 242 258 262 209 192 207 208
319 242 147 130 145 157 161 157 152 156 150 152 141 134 135 127 131 137 151 158 142 138 139 153 168 170 177 168 166 175 178 201 205 204 226 242 235 233 225 201 198 206 201 212